Location: Most
(50.5133°N, 13.6207°E)
Time: 20:31:20
(UTC+02:00)

ISS - Pass Details

Date: 25 September 2024
Orbit: 412 x 424 km, 51.6° (Epoch: 09 October)

Event Time Altitude Azimuth Distance (km) Brightness Sun altitude
Rises 21:29:30 0° 285° (WNW) 2,369 1.3 -24.2°
Reaches altitude 10° 21:31:51 10° 270° (W) 1,504 -0.2 -24.5°
Enters shadow 21:33:31 20° 244° (WSW) 1,044 -1.4 -24.8°
